Retour au catalogue

COSMOS 2251 DEB

ActifLEO
NORAD 37095·DEBRIS·🇷🇺 Russia

Lancé Jun 16, 1993 depuis Plesetsk Cosmodrome

Loading…

Prochains Passages (prochaines 24 heures)

TLE

PériméSource: Space-Track

Époque: Sep 4, 2026, 21:17 UTC

1 37095U 93036BFR 26247.88745025  .00001039  00000-0  56546-3 0  9997
2 37095  73.8413  80.6256 0192449  90.9700 271.3489 14.04444175663714

Suivez COSMOS 2251 DEB en temps réel avec AllMySat

Download on the App Store